COSMOS 2256

Satellite information

Favourite Embed

Satellite Type and Status

PAYLOADIN ORBIT

Key statistics

Satellite COSMOS 2256 at a glance.

Uptime

11861

Days in orbit

Revolutions

≈ 12.6

Per day

Orbit

LEO

Low Earth Orbit

Inclination

82.6

Latest

Satellite identification and parameters

Extended collection of information and parameters for COSMOS 2256.

Object identification

Identified? True

Debris? False

Object name: COSMOS 2256

International designator: 1993-038E

Object number (NORAD): 22691

Object ID (CCSDS): 22691

Country: COMMONWEALTH OF INDEPENDENT STATES (CIS)

Current information (Y/N): Y

RCS size: LARGE

Orbital parameters

Period: 113.929 minutes

Inclination: 82.5753 deg

SMA: 7784.855 km

Apoapsis: 1412.927 km

Periapsis: 1400.512 km

RAAN: 330.6027 deg

Eccentricy: 0.00079734

Argument of periapsis: 53.9592 deg

Mean anomaly: 62.5595 deg

Mean motion: 12.63941601 rev/day

Mean motion (dot): 0.00000048 rev/day2

B* drag term: 0.00020573241 1/REarth

Two-line elements (TLE)

Creation date: Dec. 14, 2025, 3:07 a.m.

Reference frame: TEME

Reference center: EARTH

Epoch: Dec. 13, 2025, 11:06 a.m. UTC

TLE line 0: 0 COSMOS 2256

TLE line 1: 1 22691U 93038E 25347.46279961 .00000048 00000-0 20573-3 0 9990

TLE line 2: 2 22691 82.5753 330.6027 0007973 53.9592 62.5595 12.63941601498356

Live tracking on map

Real-time ground track for satellite COSMOS 2256.

In-orbit conjunctions

There are no conjunctions computed for COSMOS 2256, at the moment. Check back to stay up to date, as we update our databases every day.

Go to all conjunctions

Associated space launch

Second generation store-dump military communications satellites

COSMOS 2256 was lifted into orbit during the mission ‘Tsiklon-3 | Strela-3 95 to 100’, on board a Tsiklon-3 space rocket.

The launch took place on June 24, 1993, 4:12 a.m. from 32/1.

For more information about the launch, click the button.

Launch to space Tsiklon-3 | Strela-3 95 to 100
Tsiklon-3 | Strela-3 95 to 100

Agency: N/A

Status: Launch Successful

Launch date: June 24, 1993, 4:12 a.m. UTC

Rocket: Tsiklon-3

Launch pad: 32/1

Location: Plesetsk Cosmodrome, Russian Federation

...

Latest news about this satellite

There are no fresh news available about this satellite. Check back as we update our databases every day.


Newsletter sign-up

Weekly statistics, charts and insights to help you stay on top of the space industry.